Jackson Evers International Airport Jackson US
ICAO: KJAN
IATA: JAN
Category: Large
Scheduled Services: Yes

Elevation: 346 ft
TransAlt. 18000 ft.

Airport Communications:
APP/DEP:123.9
ATIS:121.05
CTAF:120.9
GND:121.7
ANG COMD POST:26.46
GREENWOOD RDO:122.2
TWR:120.9
UNICOM:122.95

KJAN Zoom In..

If you have problems with the map follow the link
https://www.worldairports.se/pages/airport.php?
ICAO=KJAN

Runways:

(A) RW 16L length 8500 ft width 150 ft
ILS 110.50 / hdg 158

(B) RW 16R length 8500 ft width 150 ft
---- / hdg 158

(C) RW 34L length 8500 ft width 150 ft
ILS 109.30 / hdg 338

(D) RW 34R length 8500 ft width 150 ft
---- / hdg 338

Location; KJAN
Day. 18 / Time. 01.54 Zulu
* Altimeter: 29.96
* Temperature: 08° c. 46.4°f.
* Wind from: 350° Speed 06 kn.
Dewpoint: 07° c.
Visibility: 10 Statute Miles.
Clouds: Overcast 800 ft.

KJAN 180154Z 35006KT 10SM OVC008 08/07 A2996 RMK AO2 RAE03 SLP144 P0000 T00780067 $


Wind From 350°
Speed 06 kn.

 
 
jpsmedia.com for Web Design worldairports.se 2019   terms of use